STARLINK-36533, 67643

Orbit data source: Space-Track

STARLINK-36533, 67643 is a payload satellite owned by SpaceX/Seattle (US) in LEO that was launched on Fri, 30 Jan 2026 UTC via an FALCON 9 launch vehicle from the Air Force Eastern Test Range (AFETR). Payload-class satellites include a variety of spacecraft equipped with specific instruments for various scientific and technological missions. These include communications satellites like Starlink; space stations such as the ISS; scientific satellites like the Hubble; Earth observation satellites from companies like Planet Labs, Umbra, and HawkEye 360; GPS; miniature CubeSats for education and research; and military/defense satellites.

Loading next visibility...
Identifier
67643, 2026-020AC
Orbit
LEO
Country
Flag of USUS
Related business
Manufacturer
SpaceX/Seattle
Mission
Operational spacecraft
Bus & Motor
STARLINK V2MO, Unknown motor
Mass
575 kg wet, ~530 kg dry
Launch date (UTC)
2026-01-30 (1 week ago)
Launch vehicle
FALCON 9
Launch site
Air Force Eastern Test Range (AFETR)
Object type
Payload
Rocket body
Debris
Shape & HBR
Unknown
Radar Cross Section
RCS unknown

Expand to show TLE details & history
Last TLE update: 5 hours ago

TLE from 5 hours ago
0 STARLINK-36533
1 67643U 26020AC  26037.83335647 -.01907122  99814-3 -53030-2 0  9994
2 67643  42.9997 329.8789 0001766 264.7595 114.2441 15.92969326  2430
Epoch: 2026-02-06T20:00Z
TLE epoch observation values (Epoch: 2026-02-06T20:00:01.999Z)
Latitude
12.86419°
Longitude
-93.00085°
Altitude
293.468 km
Speed
7.734 km/s
True Right ascension
22h 55m 53s
True Declination
12° 47' 04"
Sunlit
Object was in daylight at epoch
Visualization orbit readout
Latitude
Unknown
Longitude
Unknown
Altitude
Unknown
Speed
Unknown
Apparent Right ascension
Unknown
Apparent Declination
Unknown
Sunlit
N/A
Visualization observer readout
Local Sidereal Time
02:45:15
Azimuth
Unknown
Elevation
Unknown
Doppler factor
Unknown
Orbital elements
Apogee altitude
297.157 km
Perigee altitude
294.8 km
Semi-major axis
6,674.116 km
Eccentricity
0.00018
Inclination
42.9997°
RAAN
329.8789°
Arg. of periapsis
264.7595°
True anomaly
114.26255°
Mean anomaly
114.2441°
Eccentric anomaly
114.25333°
Mean motion
3.98064 °/min
Orbital period
90.44 mins
BSTAR
-0.005303
Loading maneuver chart data...
Computing Atmospheric mass density...
Loading historical data...
Loading historical data...
Loading historical data...
Loading historical data...
Loading historical data...
Loading historical data...
Loading historical data...

Documentation

Showing up to 5 results
|